Location: Cerda�ola
(41.4919°N, 2.1403°E)
Time: 02:46:41
(UTC+00:00)

Lacrosse 4 Rocket - Pass Details

Date: 29 March 2020
Orbit: 538 x 620 km, 68.0° (Epoch: 31 May)

Event Time Altitude Azimuth Distance (km) Brightness Sun altitude
Rises 18:37:18 0° 316° (NW) 2,902 6.0 -5.2°
Reaches altitude 10° 18:40:04 10° 300° (WNW) 1,987 5.6 -5.7°
Maximum altitude 18:43:17 20° 254° (WSW) 1,448 4.5 -6.3°
Drops below altitude 10° 18:46:27 10° 208° (SSW) 1,956 4.4 -6.9°
Sets 18:49:10 0° 191° (S) 2,842 5.0 -7.4°
